| time (UTC) | temp F | wind direction | speed knots | gust knots | rain 1hr in | rain 24hr in | rain mn in | humidity % | barometer mb |
| 20260508033603 | 64 | 276 | 0.0 | 0.0 | 0.00 | 0.00 | 0.00 | 49 | 1010.5 |
| 20260508033105 | 65 | 276 | 0.0 | 0.0 | 0.00 | 0.00 | 0.00 | 49 | 1010.4 |
| 20260508032604 | 65 | 276 | 0.0 | 0.0 | 0.00 | 0.00 | 0.00 | 49 | 1010.4 |
| 20260508032103 | 66 | 276 | 0.0 | 0.0 | 0.00 | 0.00 | 0.00 | 49 | 1010.4 |
| 20260508031603 | 66 | 276 | 0.0 | 0.9 | 0.00 | 0.00 | 0.00 | 49 | 1010.3 |
| 20260508031104 | 67 | 276 | 0.0 | 0.9 | 0.00 | 0.00 | 0.00 | 48 | 1010.3 |
| 20260508030606 | 67 | 276 | 0.0 | 0.9 | 0.00 | 0.00 | 0.00 | 47 | 1010.2 |
| 20260508030409 | 68 | 276 | 0.0 | 1.7 | 0.00 | 0.00 | 0.00 | 46 | 1010.3 |
| 20260508025603 | 69 | 276 | 0.0 | 1.7 | 0.00 | 0.00 | 0.00 | 45 | 1010.2 |
| 20260508025105 | 70 | 276 | 0.0 | 0.9 | 0.00 | 0.00 | 0.00 | 45 | 1010.2 |
| 20260508024605 | 71 | 276 | 0.0 | 1.7 | 0.00 | 0.00 | 0.00 | 43 | 1010.1 |
| 20260508024105 | 72 | 276 | 0.0 | 2.6 | 0.00 | 0.00 | 0.00 | 42 | 1010.0 |
| 20260508023605 | 73 | 276 | 0.0 | 2.6 | 0.00 | 0.00 | 0.00 | 38 | 1010.0 |
| 20260508023105 | 73 | 278 | 0.0 | 0.0 | 0.00 | 0.00 | 0.00 | 37 | 1009.9 |
| 20260508022604 | 74 | 278 | 0.0 | 0.0 | 0.00 | 0.00 | 0.00 | 38 | 1009.8 |
| 20260508022104 | 74 | 278 | 0.0 | 0.9 | 0.00 | 0.00 | 0.00 | 36 | 1009.8 |
| 20260508021724 | 74 | 278 | 0.0 | 0.9 | 0.00 | 0.00 | 0.00 | 36 | 1009.8 |
| 20260508021658 | 74 | 278 | 0.0 | 0.9 | 0.00 | 0.00 | 0.00 | 36 | 1009.8 |
| 20260508020605 | 74 | 278 | 0.0 | 0.9 | 0.00 | 0.00 | 0.00 | 36 | 1009.8 |
| 20260508020105 | 75 | 278 | 0.0 | 1.7 | 0.00 | 0.00 | 0.00 | 34 | 1009.9 |
| 20260508015606 | 75 | 278 | 0.0 | 1.7 | 0.00 | 0.00 | 0.00 | 33 | 1009.9 |
| 20260508015105 | 76 | 278 | 0.0 | 2.6 | 0.00 | 0.00 | 0.00 | 33 | 1009.9 |
| 20260508014604 | 76 | 278 | 0.0 | 2.6 | 0.00 | 0.00 | 0.00 | 33 | 1009.9 |
| 20260508014101 | 76 | 277 | 0.0 | 0.9 | 0.00 | 0.00 | 0.00 | 32 | 1009.9 |
| 20260508013601 | 76 | 278 | 0.0 | 1.7 | 0.00 | 0.00 | 0.00 | 33 | 1009.9 |
| 20260508013102 | 76 | 278 | 0.0 | 1.7 | 0.00 | 0.00 | 0.00 | 34 | 1009.9 |
| 20260508012601 | 76 | 278 | 0.9 | 2.6 | 0.00 | 0.00 | 0.00 | 34 | 1009.9 |
| 20260508012102 | 76 | 278 | 0.9 | 2.6 | 0.00 | 0.00 | 0.00 | 33 | 1010.0 |
| 20260508011905 | 76 | 277 | 0.9 | 2.6 | 0.00 | 0.00 | 0.00 | 33 | 1010.0 |
| 20260508011102 | 76 | 275 | 0.0 | 1.7 | 0.00 | 0.00 | 0.00 | 34 | 1009.9 |
| 20260508010906 | 76 | 276 | 0.9 | 2.6 | 0.00 | 0.00 | 0.00 | 33 | 1010.0 |
| 20260508010239 | 76 | 276 | 0.9 | 3.5 | 0.00 | 0.00 | 0.00 | 33 | 1010.0 |
| 20260508010203 | 76 | 275 | 0.9 | 3.5 | 0.00 | 0.00 | 0.00 | 32 | 1009.9 |
| 20260508005402 | 77 | 259 | 0.9 | 3.5 | 0.00 | 0.00 | 0.00 | 37 | 1010.1 |
| 20260508004607 | 77 | 260 | 0.0 | 2.6 | 0.00 | 0.00 | 0.00 | 37 | 1010.2 |
| 20260508004105 | 76 | 259 | 0.9 | 3.5 | 0.00 | 0.00 | 0.00 | 37 | 1010.2 |
| 20260508003607 | 76 | 259 | 0.9 | 3.5 | 0.00 | 0.00 | 0.00 | 35 | 1010.2 |
| 20260508003103 | 76 | 260 | 0.0 | 2.6 | 0.00 | 0.00 | 0.00 | 36 | 1010.1 |
| 20260508002603 | 76 | 260 | 0.9 | 5.2 | 0.00 | 0.00 | 0.00 | 35 | 1010.2 |
| 20260508002105 | 76 | 260 | 0.9 | 5.2 | 0.00 | 0.00 | 0.00 | 34 | 1010.2 |
| 20260508001909 | 76 | 260 | 0.9 | 4.3 | 0.00 | 0.00 | 0.00 | 34 | 1010.2 |
| 20260508001406 | 76 | 233 | 0.9 | 4.3 | 0.00 | 0.00 | 0.00 | 35 | 1010.2 |
| 20260508000602 | 76 | 237 | 0.9 | 4.3 | 0.00 | 0.00 | 0.00 | 35 | 1010.2 |
| 20260508000103 | 76 | 189 | 0.9 | 3.5 | 0.00 | 0.00 | 0.00 | 37 | 1010.1 |
| 20260507235602 | 76 | 259 | 0.9 | 2.6 | 0.00 | 0.00 | 0.00 | 37 | 1010.1 |
| 20260507235102 | 76 | 259 | 0.9 | 3.5 | 0.00 | 0.00 | 0.00 | 38 | 1010.2 |
| 20260507234603 | 76 | 260 | 0.9 | 5.2 | 0.00 | 0.00 | 0.00 | 36 | 1010.1 |
| 20260507234102 | 76 | 260 | 0.9 | 5.2 | 0.00 | 0.00 | 0.00 | 39 | 1010.1 |
| 20260507233602 | 76 | 249 | 0.9 | 4.3 | 0.00 | 0.00 | 0.00 | 39 | 1010.1 |
| 20260507233101 | 76 | 237 | 0.9 | 3.5 | 0.00 | 0.00 | 0.00 | 38 | 1010.1 |
| 20260507232601 | 76 | 245 | 0.9 | 3.5 | 0.00 | 0.00 | 0.00 | 40 | 1010.0 |
| 20260507232103 | 76 | 245 | 0.9 | 3.5 | 0.00 | 0.00 | 0.00 | 40 | 1010.1 |
| 20260507231605 | 77 | 237 | 0.9 | 3.5 | 0.00 | 0.00 | 0.00 | 41 | 1010.2 |
| 20260507231104 | 76 | 228 | 0.9 | 3.5 | 0.00 | 0.00 | 0.00 | 40 | 1010.1 |
| 20260507230856 | 76 | 224 | 0.9 | 3.5 | 0.00 | 0.00 | 0.00 | 42 | 1010.2 |
| 20260507230104 | 76 | 222 | 0.9 | 3.5 | 0.00 | 0.00 | 0.00 | 41 | 1010.2 |
| 20260507225604 | 76 | 204 | 0.9 | 3.5 | 0.00 | 0.00 | 0.00 | 42 | 1010.3 |
| 20260507225104 | 76 | 274 | 0.9 | 3.5 | 0.00 | 0.00 | 0.00 | 44 | 1010.4 |
| 20260507224606 | 76 | 256 | 0.0 | 1.7 | 0.00 | 0.00 | 0.00 | 42 | 1010.5 |
| 20260507224106 | 75 | 258 | 0.0 | 5.2 | 0.00 | 0.00 | 0.00 | 42 | 1010.6 |
| 20260507223604 | 75 | 258 | 0.9 | 5.2 | 0.00 | 0.00 | 0.00 | 43 | 1010.6 |
| 20260507223104 | 74 | 268 | 0.9 | 5.2 | 0.00 | 0.00 | 0.00 | 44 | 1010.7 |
| 20260507222607 | 74 | 270 | 0.9 | 5.2 | 0.00 | 0.00 | 0.00 | 44 | 1010.8 |
| 20260507222411 | 74 | 261 | 0.9 | 3.5 | 0.00 | 0.00 | 0.00 | 43 | 1010.8 |
| 20260507221603 | 74 | 255 | 0.9 | 4.3 | 0.00 | 0.00 | 0.00 | 44 | 1010.9 |
| 20260507221105 | 74 | 276 | 0.9 | 4.3 | 0.00 | 0.00 | 0.00 | 43 | 1011.1 |
| 20260507221013 | 74 | 268 | 0.9 | 5.2 | 0.00 | 0.00 | 0.00 | 44 | 1011.2 |
| 20260507221009 | 74 | 197 | 0.9 | 3.5 | 0.00 | 0.00 | 0.00 | 44 | 1011.1 |
| 20260507215900 | 73 | 278 | 0.9 | 6.1 | 0.00 | 0.00 | 0.00 | 46 | 1011.2 |
| 20260507215404 | 73 | 281 | 0.9 | 6.1 | 0.00 | 0.00 | 0.00 | 44 | 1011.2 |
| 20260507214601 | 73 | 253 | 0.9 | 6.1 | 0.00 | 0.00 | 0.00 | 45 | 1011.2 |
| 20260507214104 | 74 | 231 | 1.7 | 6.1 | 0.00 | 0.00 | 0.00 | 44 | 1011.3 |
| 20260507213602 | 74 | 280 | 0.9 | 6.1 | 0.00 | 0.00 | 0.00 | 46 | 1011.3 |
| 20260507213102 | 73 | 289 | 0.9 | 6.1 | 0.00 | 0.00 | 0.00 | 46 | 1011.4 |
| 20260507212601 | 73 | 294 | 0.9 | 6.1 | 0.00 | 0.00 | 0.00 | 47 | 1011.4 |
| 20260507212101 | 73 | 268 | 1.7 | 5.2 | 0.00 | 0.00 | 0.00 | 47 | 1011.5 |
| 20260507211603 | 72 | 270 | 1.7 | 5.2 | 0.00 | 0.00 | 0.00 | 48 | 1011.6 |
| 20260507211101 | 72 | 271 | 1.7 | 5.2 | 0.00 | 0.00 | 0.00 | 49 | 1011.6 |
| 20260507210901 | 72 | 258 | 0.9 | 5.2 | 0.00 | 0.00 | 0.00 | 48 | 1011.7 |
| 20260507205900 | 72 | 262 | 0.0 | 1.7 | 0.00 | 0.00 | 0.00 | 50 | 1011.6 |
| 20260507205102 | 71 | 262 | 0.9 | 3.5 | 0.00 | 0.00 | 0.00 | 51 | 1011.8 |
| 20260507204603 | 71 | 262 | 1.7 | 5.2 | 0.00 | 0.00 | 0.00 | 51 | 1011.9 |
| 20260507204101 | 71 | 268 | 0.9 | 5.2 | 0.00 | 0.00 | 0.00 | 51 | 1011.9 |
| 20260507203602 | 71 | 253 | 0.9 | 3.5 | 0.00 | 0.00 | 0.00 | 54 | 1011.9 |
| 20260507203101 | 71 | 247 | 0.9 | 3.5 | 0.00 | 0.00 | 0.00 | 53 | 1011.9 |
| 20260507202703 | 70 | 249 | 0.9 | 3.5 | 0.00 | 0.00 | 0.00 | 52 | 1012.0 |
| 20260507202642 | 71 | 253 | 0.9 | 3.5 | 0.00 | 0.00 | 0.00 | 52 | 1012.0 |
| 20260507201602 | 70 | 248 | 0.9 | 5.2 | 0.00 | 0.00 | 0.00 | 51 | 1012.0 |
| 20260507201103 | 70 | 253 | 1.7 | 5.2 | 0.00 | 0.00 | 0.00 | 52 | 1012.0 |
| 20260507200601 | 71 | 248 | 0.9 | 3.5 | 0.00 | 0.00 | 0.00 | 52 | 1012.0 |
| 20260507200101 | 71 | 261 | 0.9 | 4.3 | 0.00 | 0.00 | 0.00 | 53 | 1012.1 |
| 20260507195601 | 70 | 166 | 0.9 | 4.3 | 0.00 | 0.00 | 0.00 | 53 | 1012.0 |
| 20260507195101 | 70 | 164 | 0.9 | 3.5 | 0.00 | 0.00 | 0.00 | 55 | 1012.1 |
| 20260507194604 | 69 | 165 | 0.9 | 3.5 | 0.00 | 0.00 | 0.00 | 54 | 1012.1 |
| 20260507194118 | 69 | 164 | 0.0 | 3.5 | 0.00 | 0.00 | 0.00 | 54 | 1012.0 |
| 20260507193607 | 69 | 163 | 0.9 | 5.2 | 0.00 | 0.00 | 0.00 | 52 | 1012.1 |
| 20260507193106 | 69 | 164 | 0.9 | 5.2 | 0.00 | 0.00 | 0.00 | 52 | 1012.1 |
| 20260507192604 | 69 | 179 | 0.9 | 4.3 | 0.00 | 0.00 | 0.00 | 54 | 1012.1 |
| 20260507192103 | 68 | 332 | 0.9 | 5.2 | 0.00 | 0.00 | 0.00 | 55 | 1012.2 |
| 20260507191559 | 68 | 270 | 0.9 | 5.2 | 0.00 | 0.00 | 0.00 | 54 | 1012.2 |
| 20260507191101 | 68 | 243 | 0.9 | 4.3 | 0.00 | 0.00 | 0.00 | 54 | 1012.3 |
| 20260507190559 | 68 | 145 | 0.9 | 4.3 | 0.00 | 0.00 | 0.00 | 53 | 1012.3 |
| 20260507190100 | 67 | 85 | 0.9 | 3.5 | 0.00 | 0.00 | 0.00 | 54 | 1012.4 |
| 20260507185600 | 67 | 137 | 0.9 | 3.5 | 0.00 | 0.00 | 0.00 | 55 | 1012.5 |
| 20260507185059 | 67 | 212 | 0.9 | 3.5 | 0.00 | 0.00 | 0.00 | 56 | 1012.5 |
| 20260507184558 | 67 | 213 | 0.9 | 3.5 | 0.00 | 0.00 | 0.00 | 55 | 1012.6 |
| 20260507184101 | 66 | 238 | 0.9 | 2.6 | 0.00 | 0.00 | 0.00 | 56 | 1012.8 |
| 20260507183558 | 66 | 238 | 0.9 | 2.6 | 0.00 | 0.00 | 0.00 | 56 | 1012.8 |
| 20260507183056 | 66 | 233 | 0.9 | 3.5 | 0.00 | 0.00 | 0.00 | 55 | 1012.9 |
| 20260507182557 | 66 | 234 | 0.9 | 3.5 | 0.00 | 0.00 | 0.00 | 54 | 1013.0 |
| 20260507182056 | 66 | 236 | 0.9 | 2.6 | 0.00 | 0.00 | 0.00 | 55 | 1013.1 |
| 20260507181556 | 65 | 238 | 0.9 | 2.6 | 0.00 | 0.00 | 0.00 | 55 | 1013.1 |
| 20260507181055 | 65 | 238 | 0.9 | 6.1 | 0.00 | 0.00 | 0.00 | 57 | 1013.2 |
| 20260507180858 | 65 | 237 | 0.9 | 6.1 | 0.00 | 0.00 | 0.00 | 57 | 1013.2 |
| 20260507180058 | 65 | 220 | 0.9 | 2.6 | 0.00 | 0.00 | 0.00 | 57 | 1013.3 |
| 20260507175555 | 64 | 206 | 0.9 | 2.6 | 0.00 | 0.00 | 0.00 | 58 | 1013.4 |
| 20260507175054 | 64 | 206 | 0.9 | 2.6 | 0.00 | 0.00 | 0.00 | 58 | 1013.5 |
| 20260507174854 | 63 | 206 | 0.9 | 2.6 | 0.00 | 0.01 | 0.00 | 57 | 1013.5 |
| 20260507174354 | 63 | 230 | 0.9 | 2.6 | 0.00 | 0.02 | 0.00 | 59 | 1013.5 |
| 20260507173552 | 63 | 230 | 0.9 | 3.5 | 0.00 | 0.02 | 0.00 | 60 | 1013.5 |
| 20260507173051 | 63 | 228 | 0.9 | 3.5 | 0.00 | 0.02 | 0.00 | 60 | 1013.5 |
| 20260507172552 | 62 | 228 | 0.9 | 3.5 | 0.00 | 0.02 | 0.00 | 61 | 1013.5 |
| 20260507172351 | 62 | 213 | 0.9 | 3.5 | 0.00 | 0.02 | 0.00 | 61 | 1013.6 |
| 20260507171548 | 62 | 213 | 0.9 | 3.5 | 0.00 | 0.02 | 0.00 | 62 | 1013.5 |
| 20260507171047 | 62 | 247 | 0.9 | 3.5 | 0.00 | 0.02 | 0.00 | 64 | 1013.5 |
| 20260507170546 | 62 | 247 | 0.9 | 3.5 | 0.00 | 0.02 | 0.00 | 63 | 1013.6 |
| 20260507170043 | 61 | 226 | 0.9 | 3.5 | 0.00 | 0.02 | 0.00 | 65 | 1013.6 |
| 20260507165544 | 61 | 277 | 0.9 | 3.5 | 0.00 | 0.02 | 0.00 | 65 | 1013.7 |
| 20260507165039 | 60 | 280 | 0.9 | 2.6 | 0.00 | 0.02 | 0.00 | 66 | 1013.8 |
| 20260507164539 | 60 | 280 | 0.9 | 6.1 | 0.00 | 0.02 | 0.00 | 67 | 1013.7 |
| 20260507164040 | 60 | 281 | 1.7 | 6.1 | 0.00 | 0.02 | 0.00 | 66 | 1013.7 |
| 20260507163836 | 59 | 287 | 1.7 | 3.5 | 0.00 | 0.02 | 0.00 | 67 | 1013.7 |
| 20260507163037 | 59 | 287 | 1.7 | 3.5 | 0.00 | 0.02 | 0.00 | 67 | 1013.8 |
| 20260507162537 | 59 | 288 | 1.7 | 3.5 | 0.00 | 0.02 | 0.00 | 68 | 1013.8 |
| 20260507162037 | 58 | 291 | 1.7 | 3.5 | 0.00 | 0.02 | 0.00 | 68 | 1013.7 |
| 20260507161832 | 58 | 291 | 1.7 | 3.5 | 0.00 | 0.02 | 0.00 | 69 | 1013.7 |
| 20260507161037 | 58 | 292 | 1.7 | 3.5 | 0.00 | 0.02 | 0.00 | 69 | 1013.7 |
| 20260507160537 | 58 | 292 | 1.7 | 6.1 | 0.00 | 0.02 | 0.00 | 69 | 1013.8 |
| 20260507160038 | 58 | 292 | 0.9 | 6.1 | 0.00 | 0.02 | 0.00 | 70 | 1013.8 |
| 20260507155540 | 58 | 287 | 0.9 | 3.5 | 0.00 | 0.02 | 0.00 | 70 | 1013.8 |
| 20260507155031 | 57 | 289 | 0.9 | 3.5 | 0.00 | 0.02 | 0.00 | 72 | 1013.7 |
| 20260507154831 | 57 | 296 | 0.0 | 2.6 | 0.00 | 0.02 | 0.00 | 75 | 1013.8 |
| 20260507154033 | 56 | 296 | 0.9 | 3.5 | 0.00 | 0.02 | 0.00 | 75 | 1013.8 |
| 20260507153533 | 56 | 295 | 0.9 | 3.5 | 0.00 | 0.02 | 0.00 | 75 | 1013.9 |
| 20260507153034 | 56 | 312 | 0.9 | 3.5 | 0.00 | 0.02 | 0.00 | 76 | 1013.9 |
| 20260507152533 | 55 | 312 | 0.0 | 1.7 | 0.00 | 0.02 | 0.00 | 76 | 1014.0 |
| 20260507152033 | 55 | 312 | 0.0 | 2.6 | 0.00 | 0.02 | 0.00 | 76 | 1013.9 |
| 20260507151531 | 54 | 312 | 0.0 | 2.6 | 0.00 | 0.02 | 0.00 | 77 | 1013.9 |
| 20260507151034 | 54 | 312 | 0.0 | 2.6 | 0.00 | 0.02 | 0.00 | 77 | 1013.9 |
| 20260507150532 | 53 | 312 | 0.0 | 2.6 | 0.00 | 0.02 | 0.00 | 78 | 1014.0 |
| 20260507150032 | 53 | 312 | 0.0 | 1.7 | 0.00 | 0.02 | 0.00 | 79 | 1014.0 |
| 20260507145531 | 52 | 312 | 0.0 | 2.6 | 0.00 | 0.02 | 0.00 | 80 | 1014.2 |
| 20260507145033 | 52 | 312 | 0.9 | 2.6 | 0.00 | 0.02 | 0.00 | 80 | 1014.2 |
| 20260507144532 | 51 | 312 | 0.0 | 2.6 | 0.00 | 0.02 | 0.00 | 80 | 1014.3 |
| 20260507144035 | 51 | 312 | 0.0 | 2.6 | 0.00 | 0.02 | 0.00 | 80 | 1014.3 |
| 20260507143531 | 51 | 312 | 0.0 | 1.7 | 0.00 | 0.02 | 0.00 | 80 | 1014.2 |
| 20260507143031 | 51 | 312 | 0.0 | 1.7 | 0.00 | 0.02 | 0.00 | 81 | 1014.1 |
| 20260507142532 | 51 | 312 | 0.0 | 1.7 | 0.00 | 0.02 | 0.00 | 81 | 1013.9 |
| 20260507142032 | 51 | 312 | 0.0 | 1.7 | 0.00 | 0.02 | 0.00 | 83 | 1013.7 |
| 20260507141531 | 51 | 312 | 0.0 | 0.0 | 0.00 | 0.02 | 0.00 | 83 | 1013.7 |
| 20260507141138 | 50 | 312 | 0.0 | 0.0 | 0.00 | 0.02 | 0.00 | 83 | 1013.7 |
| 20260507141114 | 51 | 312 | 0.0 | 0.0 | 0.00 | 0.02 | 0.00 | 83 | 1013.7 |
| 20260507140032 | 50 | 312 | 0.0 | 0.0 | 0.00 | 0.02 | 0.00 | 84 | 1013.6 |
| 20260507135535 | 50 | 312 | 0.0 | 0.0 | 0.00 | 0.02 | 0.00 | 84 | 1013.4 |
| 20260507135031 | 50 | 312 | 0.0 | 0.0 | 0.00 | 0.02 | 0.00 | 85 | 1013.3 |
| 20260507134533 | 50 | 312 | 0.0 | 0.0 | 0.00 | 0.02 | 0.00 | 85 | 1013.2 |
| 20260507134031 | 50 | 312 | 0.0 | 0.0 | 0.00 | 0.02 | 0.00 | 85 | 1013.2 |
| 20260507133531 | 49 | 312 | 0.0 | 0.0 | 0.00 | 0.02 | 0.00 | 85 | 1013.0 |
| 20260507133032 | 49 | 312 | 0.0 | 0.0 | 0.00 | 0.02 | 0.00 | 85 | 1012.9 |
| 20260507132531 | 49 | 312 | 0.0 | 0.0 | 0.00 | 0.02 | 0.00 | 85 | 1012.9 |
| 20260507132033 | 49 | 312 | 0.0 | 0.0 | 0.00 | 0.02 | 0.00 | 85 | 1012.8 |
| 20260507131532 | 49 | 312 | 0.0 | 0.0 | 0.00 | 0.02 | 0.00 | 85 | 1012.8 |
| 20260507131032 | 49 | 312 | 0.0 | 0.0 | 0.00 | 0.02 | 0.00 | 85 | 1012.8 |
| 20260507130823 | 49 | 312 | 0.0 | 0.0 | 0.00 | 0.02 | 0.00 | 85 | 1012.8 |
| 20260507130033 | 49 | 312 | 0.0 | 0.0 | 0.00 | 0.02 | 0.00 | 85 | 1012.6 |
| 20260507125535 | 49 | 312 | 0.0 | 0.0 | 0.00 | 0.02 | 0.00 | 85 | 1012.8 |
| 20260507125031 | 49 | 312 | 0.0 | 0.0 | 0.00 | 0.02 | 0.00 | 85 | 1012.8 |
| 20260507124532 | 49 | 312 | 0.0 | 0.0 | 0.00 | 0.02 | 0.00 | 85 | 1012.8 |
| 20260507124033 | 49 | 312 | 0.0 | 0.0 | 0.00 | 0.02 | 0.00 | 84 | 1012.8 |
| 20260507123533 | 49 | 312 | 0.0 | 0.0 | 0.00 | 0.02 | 0.00 | 84 | 1012.8 |
| 20260507123032 | 49 | 312 | 0.0 | 0.0 | 0.00 | 0.02 | 0.00 | 85 | 1012.6 |
| 20260507122532 | 49 | 312 | 0.0 | 0.0 | 0.00 | 0.02 | 0.00 | 84 | 1012.8 |
| 20260507122030 | 49 | 312 | 0.0 | 0.9 | 0.00 | 0.02 | 0.00 | 84 | 1012.8 |
| 20260507121530 | 49 | 312 | 0.0 | 0.9 | 0.00 | 0.02 | 0.00 | 85 | 1012.5 |
| 20260507121029 | 49 | 312 | 0.0 | 0.0 | 0.00 | 0.02 | 0.00 | 84 | 1012.4 |
| 20260507120529 | 49 | 312 | 0.0 | 0.0 | 0.00 | 0.02 | 0.00 | 84 | 1012.4 |
| 20260507120031 | 49 | 312 | 0.0 | 0.0 | 0.00 | 0.02 | 0.00 | 84 | 1012.4 |
| 20260507115529 | 49 | 312 | 0.0 | 0.0 | 0.00 | 0.02 | 0.00 | 84 | 1012.3 |
| 20260507115029 | 49 | 312 | 0.0 | 0.0 | 0.00 | 0.02 | 0.00 | 83 | 1012.2 |
| 20260507114836 | 49 | 312 | 0.0 | 0.0 | 0.00 | 0.02 | 0.00 | 83 | 1012.1 |
| 20260507114030 | 49 | 312 | 0.0 | 0.0 | 0.00 | 0.02 | 0.00 | 83 | 1012.1 |
| 20260507113530 | 50 | 312 | 0.0 | 0.0 | 0.00 | 0.02 | 0.00 | 83 | 1012.0 |
| 20260507113030 | 50 | 312 | 0.0 | 0.0 | 0.00 | 0.02 | 0.00 | 82 | 1012.0 |
| 20260507112530 | 50 | 312 | 0.0 | 0.0 | 0.00 | 0.02 | 0.00 | 81 | 1012.0 |
| 20260507112029 | 50 | 312 | 0.0 | 0.9 | 0.00 | 0.02 | 0.00 | 81 | 1011.9 |
| 20260507111531 | 51 | 312 | 0.0 | 0.9 | 0.00 | 0.02 | 0.00 | 81 | 1011.8 |
| 20260507111033 | 51 | 312 | 0.0 | 0.9 | 0.00 | 0.02 | 0.00 | 81 | 1011.8 |
| 20260507110532 | 51 | 312 | 0.0 | 2.6 | 0.00 | 0.02 | 0.00 | 81 | 1011.7 |
| 20260507110029 | 51 | 312 | 0.0 | 2.6 | 0.00 | 0.02 | 0.00 | 81 | 1011.6 |
| 20260507105529 | 51 | 312 | 0.0 | 1.7 | 0.00 | 0.02 | 0.00 | 81 | 1011.6 |
| 20260507105331 | 51 | 312 | 0.0 | 0.0 | 0.00 | 0.02 | 0.00 | 81 | 1011.6 |
| 20260507104639 | 51 | 312 | 0.0 | 0.9 | 0.00 | 0.02 | 0.00 | 81 | 1011.7 |
| 20260507104616 | 51 | 312 | 0.0 | 0.9 | 0.00 | 0.02 | 0.00 | 81 | 1011.7 |
| 20260507103529 | 51 | 312 | 0.0 | 0.0 | 0.00 | 0.02 | 0.00 | 81 | 1011.7 |
| 20260507103031 | 51 | 312 | 0.0 | 0.0 | 0.00 | 0.02 | 0.00 | 81 | 1011.7 |
| 20260507102529 | 51 | 312 | 0.0 | 0.0 | 0.00 | 0.02 | 0.00 | 81 | 1011.6 |
| 20260507102031 | 51 | 312 | 0.0 | 0.0 | 0.00 | 0.02 | 0.00 | 81 | 1011.5 |
| 20260507101543 | 51 | 312 | 0.0 | 0.0 | 0.00 | 0.02 | 0.00 | 81 | 1011.5 |
| 20260507101249 | 51 | 312 | 0.0 | 0.0 | 0.00 | 0.02 | 0.00 | 80 | 1011.4 |
| 20260507101206 | 51 | 312 | 0.0 | 0.0 | 0.00 | 0.02 | 0.00 | 80 | 1011.4 |
| 20260507095830 | 51 | 312 | 0.0 | 0.0 | 0.00 | 0.02 | 0.00 | 80 | 1011.3 |
| 20260507095029 | 51 | 312 | 0.0 | 0.0 | 0.00 | 0.02 | 0.00 | 80 | 1011.3 |
| 20260507094531 | 52 | 312 | 0.0 | 0.0 | 0.00 | 0.02 | 0.00 | 80 | 1011.2 |
| 20260507094031 | 52 | 312 | 0.0 | 0.0 | 0.00 | 0.02 | 0.00 | 80 | 1011.2 |
| 20260507093532 | 52 | 312 | 0.0 | 0.0 | 0.00 | 0.02 | 0.00 | 80 | 1011.1 |
| 20260507093030 | 52 | 312 | 0.0 | 0.0 | 0.00 | 0.02 | 0.00 | 80 | 1011.1 |
| 20260507092530 | 52 | 312 | 0.0 | 0.0 | 0.00 | 0.02 | 0.00 | 80 | 1011.1 |
| 20260507092029 | 52 | 312 | 0.0 | 0.0 | 0.00 | 0.02 | 0.00 | 80 | 1010.9 |
| 20260507091528 | 53 | 312 | 0.0 | 0.0 | 0.00 | 0.02 | 0.00 | 80 | 1010.9 |
| 20260507091031 | 53 | 312 | 0.0 | 0.0 | 0.00 | 0.02 | 0.00 | 80 | 1010.9 |
| 20260507090529 | 53 | 312 | 0.0 | 0.0 | 0.00 | 0.02 | 0.00 | 79 | 1010.8 |
| 20260507090328 | 53 | 312 | 0.0 | 0.9 | 0.00 | 0.02 | 0.00 | 79 | 1010.9 |
| 20260507085530 | 54 | 312 | 0.0 | 1.7 | 0.00 | 0.02 | 0.00 | 79 | 1010.7 |
| 20260507085029 | 54 | 312 | 0.0 | 1.7 | 0.00 | 0.02 | 0.00 | 78 | 1010.8 |
| 20260507084529 | 54 | 312 | 0.0 | 3.5 | 0.00 | 0.02 | 0.00 | 78 | 1010.7 |
| 20260507084032 | 55 | 312 | 0.0 | 3.5 | 0.00 | 0.02 | 0.00 | 77 | 1010.6 |
| 20260507083533 | 55 | 312 | 0.0 | 1.7 | 0.00 | 0.02 | 0.00 | 75 | 1010.6 |
| 20260507083033 | 55 | 312 | 0.0 | 1.7 | 0.00 | 0.02 | 0.00 | 74 | 1010.6 |
| 20260507082533 | 56 | 312 | 0.0 | 0.9 | 0.00 | 0.02 | 0.00 | 73 | 1010.6 |
| 20260507082032 | 56 | 312 | 0.0 | 0.0 | 0.00 | 0.02 | 0.00 | 71 | 1010.5 |
| 20260507081531 | 56 | 312 | 0.9 | 7.0 | 0.00 | 0.02 | 0.00 | 71 | 1010.5 |
| 20260507081029 | 56 | 312 | 1.7 | 7.0 | 0.00 | 0.02 | 0.00 | 71 | 1010.4 |
| 20260507080530 | 56 | 301 | 1.7 | 4.3 | 0.00 | 0.02 | 0.00 | 71 | 1010.5 |
| 20260507080030 | 56 | 291 | 1.7 | 3.5 | 0.00 | 0.02 | 0.00 | 71 | 1010.5 |
| 20260507075536 | 56 | 287 | 1.7 | 5.2 | 0.00 | 0.02 | 0.00 | 72 | 1010.6 |
| 20260507075030 | 55 | 285 | 1.7 | 6.1 | 0.00 | 0.02 | 0.00 | 74 | 1010.5 |
| 20260507074529 | 55 | 303 | 0.9 | 6.1 | 0.00 | 0.02 | 0.00 | 75 | 1010.5 |
| 20260507074029 | 55 | 308 | 0.9 | 3.5 | 0.00 | 0.02 | 0.00 | 75 | 1010.4 |
| 20260507073831 | 55 | 310 | 0.0 | 1.7 | 0.00 | 0.02 | 0.00 | 75 | 1010.4 |
| 20260507073030 | 55 | 309 | 0.0 | 4.3 | 0.00 | 0.02 | 0.00 | 75 | 1010.5 |
| 20260507072530 | 55 | 309 | 0.0 | 4.3 | 0.00 | 0.02 | 0.00 | 75 | 1010.3 |
| 20260507072030 | 55 | 296 | 0.0 | 0.9 | 0.00 | 0.02 | 0.00 | 75 | 1010.1 |
| 20260507071528 | 55 | 296 | 0.0 | 0.9 | 0.00 | 0.02 | 0.00 | 74 | 1010.2 |
| 20260507071030 | 55 | 295 | 0.0 | 0.9 | 0.00 | 0.02 | 0.00 | 74 | 1010.1 |
| 20260507070834 | 55 | 296 | 0.0 | 0.9 | 0.00 | 0.02 | 0.00 | 74 | 1010.1 |
| 20260507070334 | 55 | 296 | 0.0 | 0.9 | 0.00 | 0.02 | 0.00 | 74 | 1010.0 |
| 20260507065529 | 55 | 295 | 0.0 | 0.9 | 0.00 | 0.02 | 0.02 | 74 | 1010.1 |
| 20260507065029 | 56 | 295 | 0.0 | 1.7 | 0.00 | 0.02 | 0.02 | 74 | 1010.0 |
| 20260507064530 | 56 | 296 | 0.0 | 1.7 | 0.00 | 0.02 | 0.02 | 73 | 1010.0 |
| 20260507064032 | 56 | 296 | 0.0 | 1.7 | 0.00 | 0.02 | 0.02 | 73 | 1009.9 |
| 20260507063834 | 56 | 295 | 0.0 | 1.7 | 0.00 | 0.02 | 0.02 | 73 | 1009.9 |
| 20260507063030 | 56 | 297 | 0.0 | 0.0 | 0.00 | 0.02 | 0.02 | 73 | 1009.9 |
| 20260507062528 | 56 | 297 | 0.0 | 0.9 | 0.00 | 0.02 | 0.02 | 72 | 1009.9 |
| 20260507062029 | 56 | 297 | 0.0 | 1.7 | 0.00 | 0.02 | 0.02 | 72 | 1009.9 |
| 20260507061528 | 57 | 297 | 0.0 | 1.7 | 0.00 | 0.02 | 0.02 | 72 | 1009.8 |
| 20260507061145 | 57 | 297 | 0.0 | 1.7 | 0.00 | 0.02 | 0.02 | 69 | 1009.8 |
| 20260507061119 | 57 | 297 | 0.0 | 1.7 | 0.00 | 0.02 | 0.02 | 71 | 1009.7 |
| 20260507060030 | 58 | 297 | 0.0 | 1.7 | 0.00 | 0.02 | 0.02 | 68 | 1009.8 |
| 20260507055530 | 58 | 297 | 0.0 | 1.7 | 0.00 | 0.02 | 0.02 | 67 | 1009.7 |
| 20260507055127 | 59 | 297 | 0.0 | 0.9 | 0.00 | 0.02 | 0.02 | 64 | 1009.6 |
| 20260507055108 | 59 | 297 | 0.0 | 0.9 | 0.00 | 0.02 | 0.02 | 66 | 1009.7 |
| 20260507054033 | 60 | 297 | 0.0 | 0.9 | 0.00 | 0.02 | 0.02 | 62 | 1009.6 |
| 20260507053531 | 60 | 297 | 0.0 | 0.9 | 0.00 | 0.02 | 0.02 | 61 | 1009.6 |
| 20260507053034 | 61 | 297 | 0.0 | 0.9 | 0.00 | 0.02 | 0.02 | 60 | 1009.6 |
| 20260507052533 | 61 | 297 | 0.0 | 0.9 | 0.00 | 0.02 | 0.02 | 59 | 1009.6 |
| 20260507052032 | 61 | 297 | 0.9 | 3.5 | 0.00 | 0.02 | 0.02 | 59 | 1009.7 |
| 20260507051532 | 62 | 297 | 1.7 | 6.1 | 0.00 | 0.02 | 0.02 | 58 | 1009.7 |
| 20260507051032 | 62 | 284 | 2.6 | 7.0 | 0.00 | 0.02 | 0.02 | 58 | 1009.6 |
| 20260507050531 | 62 | 320 | 1.7 | 7.8 | 0.00 | 0.02 | 0.02 | 57 | 1009.6 |
| 20260507050032 | 62 | 285 | 1.7 | 7.8 | 0.00 | 0.02 | 0.02 | 58 | 1009.6 |
| 20260507045534 | 62 | 282 | 2.6 | 7.0 | 0.00 | 0.02 | 0.02 | 58 | 1009.6 |
| 20260507045146 | 61 | 291 | 2.6 | 8.7 | 0.00 | 0.02 | 0.02 | 61 | 1009.6 |
| 20260507045120 | 61 | 272 | 2.6 | 8.7 | 0.00 | 0.02 | 0.02 | 59 | 1009.6 |
| 20260507044033 | 60 | 308 | 2.6 | 7.0 | 0.00 | 0.02 | 0.02 | 62 | 1009.6 |
| 20260507043533 | 60 | 305 | 2.6 | 9.6 | 0.00 | 0.02 | 0.02 | 63 | 1009.7 |
| 20260507043033 | 60 | 281 | 2.6 | 9.6 | 0.00 | 0.02 | 0.02 | 65 | 1009.6 |
| 20260507042534 | 59 | 305 | 1.7 | 6.1 | 0.00 | 0.02 | 0.02 | 67 | 1009.6 |
| 20260507042032 | 59 | 274 | 1.7 | 6.1 | 0.00 | 0.02 | 0.02 | 69 | 1009.5 |
| 20260507041532 | 59 | 288 | 1.7 | 6.1 | 0.00 | 0.02 | 0.02 | 69 | 1009.5 |
| 20260507041033 | 59 | 293 | 1.7 | 7.0 | 0.00 | 0.02 | 0.02 | 69 | 1009.6 |
| 20260507040828 | 59 | 285 | 1.7 | 7.0 | 0.00 | 0.02 | 0.02 | 68 | 1009.6 |
| 20260507040033 | 60 | 322 | 0.9 | 3.5 | 0.00 | 0.02 | 0.02 | 67 | 1009.2 |
| 20260507035533 | 60 | 324 | 0.0 | 0.0 | 0.00 | 0.02 | 0.02 | 65 | 1008.4 |
| 20260507035032 | 61 | 324 | 0.0 | 0.0 | 0.00 | 0.02 | 0.02 | 65 | 1008.4 |
| 20260507034532 | 61 | 324 | 0.0 | 0.0 | 0.00 | 0.02 | 0.02 | 64 | 1008.4 |
| 20260507034035 | 62 | 324 | 0.0 | 0.0 | 0.00 | 0.02 | 0.02 | 63 | 1008.3 |